Location: Mauries
(43.6188°N, 0.3322°W)
Time: 20:17:21
(UTC+00:00)

TIMED - Pass Details

Date: 14 January 2026
Orbit: 581 x 584 km, 74.1° (Epoch: 11 February)

Event Time Altitude Azimuth Distance (km) Brightness Sun altitude
Rises 05:50:12 0° 203° (SSW) 2,786 7.8 -18.0°
Reaches altitude 10° 05:52:24 10° 205° (SSW) 1,892 6.9 -17.6°
Maximum altitude 05:56:37 75° 291° (WNW) 608 4.3 -16.9°
Drops below altitude 10° 06:00:52 10° 17° (NNE) 1,908 7.1 -16.2°
Sets 06:03:06 0° 19° (NNE) 2,813 8.0 -15.8°
